{"data":{"norad_id":43570,"epoch":"2026-05-25T04:50:22.445952Z","epoch_age_seconds":53538,"freshness":"FRESH","line1":"1 43570U 18061B   26145.20164868  .00000114  00000+0  33547-4 0  9999","line2":"2 43570  86.3968  66.3567 0002160  82.3919 277.7522 14.34218127410106","mean_motion":14.34218127,"eccentricity":0.000216,"inclination_deg":86.3968,"raan_deg":66.3567,"arg_perigee_deg":82.3919,"mean_anomaly_deg":277.7522,"bstar":3.3547e-5,"rev_number":41010,"period_min":100.40313763236,"perigee_km":776.1202469391,"apogee_km":779.21155379206,"semimajor_km":7155.8029003656,"source":"CELESTRAK","updated_at":"2026-05-25T13:38:14.811331Z"}}